Regional Weather Roundup
Issued by NWS

Home | Current Version | Previous Version | Text Only | Print | Product List | Glossary On
Versions: 1 2 3 4 5 6 7 8 9 10 11 12 13 14 15 16 17 18 19 20 21 22 23 24 25 26 27 28 29 30 31 32 33 34 35 36 37 38 39 40 41 42 43 44 45 46 47 48 49 50
000
ASUS43 KMKX 220021
RWRWI

WISCONSIN REGIONAL WEATHER ROUNDUP
NATIONAL WEATHER SERVICE MILWAUKEE/SULLIVAN WI
700 PM CDT SUN SEP 21 2014

NOTE: "FAIR" INDICATES FEW OR NO CLOUDS BELOW 12,000 FEET WITH NO
SIGNIFICANT WEATHER AND/OR OBSTRUCTIONS TO VISIBILITY.

WIZ001-002-006>008-014>016-023>028-220100-
NORTHWEST WISCONSIN

CITY           SKY/WX    TMP DP  RH WIND       PRES   REMARKS
SUPERIOR ARPT  CLEAR     58  45  62 CALM      30.15R
6HR MIN TEMP:  58; 6HR MAX TEMP:  65;

ASHLAND        CLEAR     49  46  90 CALM      30.15R
6HR MIN TEMP:  49; 6HR MAX TEMP:  61;

HAYWARD        CLEAR     56  45  66 CALM      30.15R
6HR MIN TEMP:  55; 6HR MAX TEMP:  62;

SIREN          CLEAR     58  47  66 NW5       30.17R
6HR MIN TEMP:  58; 6HR MAX TEMP:  64;

RICE LAKE      CLEAR     58  43  57 CALM      30.17R
6HR MIN TEMP:  59; 6HR MAX TEMP:  63;

LADYSMITH      CLEAR     55  43  63 N3        30.17R
6HR MIN TEMP:  55; 6HR MAX TEMP:  61;

EAU CLAIRE     CLEAR     59  45  59 NW5       30.14R
6HR MIN TEMP:  59; 6HR MAX TEMP:  65;

MENOMONIE      CLEAR     61  44  54 NW7       30.14F
6HR MIN TEMP:  61; 6HR MAX TEMP:  66;

NEW RICHMOND   CLEAR     58  45  61 NW3       30.17R
6HR MIN TEMP:  58; 6HR MAX TEMP:  65;

OSCEOLA        CLEAR     60  47  61 W3        30.19S
6HR MIN TEMP:  60; 6HR MAX TEMP:  65;

$$

WIZ003>005-009-010-017-018-220100-
NORTH CENTRAL WISCONSIN

CITY           SKY/WX    TMP DP  RH WIND       PRES   REMARKS
WOODRUFF       CLEAR     49  40  73 CALM      30.14R
6HR MIN TEMP:  47; 6HR MAX TEMP:  53;

RHINELANDER    CLEAR     46  37  71 NW3       30.15R
6HR MIN TEMP:  46; 6HR MAX TEMP:  55;

EAGLE RIVER    CLEAR     45  36  71 CALM      30.13R
6HR MIN TEMP:  45; 6HR MAX TEMP:  53;

LAND O LAKES   CLEAR     46  39  77 NW3       30.13S
6HR MIN TEMP:  46; 6HR MAX TEMP:  51; 6HR PCP:  0.03;

PHILLIPS       CLEAR     46  42  87 CALM      30.14S
6HR MIN TEMP:  49; 6HR MAX TEMP:  55;

TOMAHAWK       CLEAR     46  37  70 CALM      30.15R
6HR MIN TEMP:  46; 6HR MAX TEMP:  55;

MEDFORD        CLEAR     50  40  70 N6        30.14R
6HR MIN TEMP:  50; 6HR MAX TEMP:  58;

MERRILL        CLEAR     49  38  65 N6        30.14R
6HR MIN TEMP:  49; 6HR MAX TEMP:  58;

$$

WIZ029-030-035-036-043>047-220100-
CENTRAL WISCONSIN

CITY           SKY/WX    TMP DP  RH WIND       PRES   REMARKS
WAUSAU         CLEAR     53  39  59 N7G18     30.11R
6HR MIN TEMP:  53; 6HR MAX TEMP:  59;

MOSINEE        CLEAR     52  43  71 NW12      30.14R
MARSHFIELD     CLEAR     53  42  66 N7        30.13R
6HR MIN TEMP:  53; 6HR MAX TEMP:  63;

STEVENS POINT  CLEAR     52  41  64 NW7       30.12R
6HR MIN TEMP:  52; 6HR MAX TEMP:  58;

WAUPACA        CLEAR     55  44  65 NW5       30.11R
6HR MIN TEMP:  55; 6HR MAX TEMP:  62;

WAUTOMA        CLEAR     57  44  62 N10       30.11R
6HR MIN TEMP:  57; 6HR MAX TEMP:  62;

WISC RAPIDS    CLEAR     55  43  63 N7        30.13R
6HR MIN TEMP:  55; 6HR MAX TEMP:  64;

CAMP DOUGLAS   CLEAR     56  46  70 N8        30.12R
6HR MIN TEMP:  56; 6HR MAX TEMP:  65;

$$

WIZ011>013-019>022-031-037>040-048>050-220100-
NORTHEAST WISCONSIN

CITY           SKY/WX    TMP DP  RH WIND       PRES   REMARKS
ANTIGO         CLEAR     48  39  71 NW13      30.12R
6HR MIN TEMP:  48; 6HR MAX TEMP:  54;

STURGEON BAY   CLEAR     48  37  66 N17       30.10R
6HR MIN TEMP:  48; 6HR MAX TEMP:  55;

GREEN BAY      CLEAR     51  44  77 N6        30.09R
6HR MIN TEMP:  51; 6HR MAX TEMP:  59;

MANITOWOC      CLEAR     51  43  74 N7        30.09R
6HR MIN TEMP:  51; 6HR MAX TEMP:  58; 6HR PCP: TRACE;

APPLETON       PTCLDY    52  43  71 N7        30.09R
CLINTONVILLE   CLEAR     52  39  62 N5        30.11R
OSHKOSH        PTCLDY    55  43  63 N9        30.08R
6HR MIN TEMP:  55; 6HR MAX TEMP:  60;

$$

WIZ032>034-041-042-053>061-220100-
SOUTHWEST WISCONSIN

CITY           SKY/WX    TMP DP  RH WIND       PRES   REMARKS
LA CROSSE      CLEAR     61  46  57 N8        30.13R
6HR MIN TEMP:  61; 6HR MAX TEMP:  69;

SPARTA         CLEAR     58  44  58 NW3       30.14R
6HR MIN TEMP:  58; 6HR MAX TEMP:  66;

VIROQUA        FAIR      57  45  65 NW7       30.14R
6HR MIN TEMP:  57; 6HR MAX TEMP:  64;

BOSCOBEL       PTCLDY    60  47  61 NW3       30.12R
6HR MIN TEMP:  60; 6HR MAX TEMP:  69;

PRAIRIE DU CHI CLEAR     61  45  54 NW5       30.12R
6HR MIN TEMP:  61; 6HR MAX TEMP:  68;

PLATTEVILLE    FAIR      60  46  60 NW7       30.12R
6HR MIN TEMP:  59; 6HR MAX TEMP:  67;

$$

WIZ056-057-062-063-064-067-068-220100-
SOUTH CENTRAL WISCONSIN

CITY           SKY/WX    TMP DP  RH WIND       PRES   REMARKS
BARABOO/DELLS  CLEAR     58  42  54 N6        30.10R
6HR MIN TEMP:  58; 6HR MAX TEMP:  64;

LONE ROCK      CLEAR     63  45  51 NW6       30.11R
6HR MIN TEMP:  63; 6HR MAX TEMP:  69;

WATERTOWN      CLEAR     54  44  68 NW5       30.08R
6HR MIN TEMP:  54; 6HR MAX TEMP:  64;

MADISON        MOCLDY    58  45  62 N6        30.09R
6HR MIN TEMP:  58; 6HR MAX TEMP:  66;

MIDDLETON      FAIR      58  44  58 N5        30.10R
6HR MIN TEMP:  58; 6HR MAX TEMP:  66;

MONROE         CLEAR     59  45  58 NW8       30.09R
JANESVILLE     CLEAR     63  43  48 N12       30.07R
$$

WIZ051-052-058>065-066-070>072-220100-
SOUTHEAST WISCONSIN

CITY           SKY/WX    TMP DP  RH WIND       PRES   REMARKS
MILWAUKEE      PTCLDY    55  41  59 N8        30.07R
6HR MIN TEMP:  55; 6HR MAX TEMP:  62; 6HR PCP: TRACE;

WAUKESHA       PTCLDY    54  43  66 NW12      30.08R
MILWAUKEE/TIMM CLEAR     54  41  62 N7        30.07R
RACINE         CLEAR     54  43  66 N10       30.08R
6HR MIN TEMP:  54; 6HR MAX TEMP:  64; 6HR PCP: TRACE;

BURLINGTON     CLEAR     54  43  66 N5        30.08R
6HR MIN TEMP:  54; 6HR MAX TEMP:  65;

KENOSHA        PTCLDY    54  44  69 N7        30.07R
6HR MIN TEMP:  54; 6HR MAX TEMP:  65; 6HR PCP:  0.01;

FOND DU LAC    CLEAR     54  43  66 N6        30.09R
6HR MIN TEMP:  54; 6HR MAX TEMP:  60;

SHEBOYGAN      CLEAR     53  42  66 N8        30.08R
6HR MIN TEMP:  53; 6HR MAX TEMP:  61;

WEST BEND      CLEAR     52  41  66 N5        30.08R
JUNEAU         CLEAR     54  44  70 NW3       30.09R
6HR MIN TEMP:  54; 6HR MAX TEMP:  61;

$$

LSZ147-162-220100-
LAKE SUPERIOR

STATION/POSITION TIME  TEMP    WIND        PRES    WAVE
                       AIR SEA DIR/SP/G            HT/PER
                 (UTC) (F)     (DEG/KT/KT) (MB)    (FT/S)
W MID LAKE BUOY  2350   50 47  230/ 12/ 14 1020.1R   2/ 6
DEVILS ISLAND    0000   53     250/  8/ 10 1020.7R
PORT WING        2340   61      CALM  /  2 1020.7R
SAXON HARBOR     2340   51      CALM  /  2 1020.7S
$$

LMZ867-665-643>646-220100-
LAKE MICHIGAN

STATION/POSITION TIME  TEMP    WIND        PRES    WAVE
                       AIR SEA DIR/SP/G            HT/PER
                 (UTC) (F)     (DEG/KT/KT) (MB)    (FT/S)
N MID LAKE BUOY  2350   48 57  340/ 23/ 31 1017.8R   6/ 6
NORTHPORT PIER   2325   49     340/ 28     1018.3R
KEWAUNEE LAKESHO 2300   54     350/ 10/ 16 1016.7R
SHEBOYGAN LAKESH 0000   55 51  340/ 11/ 13 1018.9R
PORT WASHINGTON  2300   58     330/  4/ 15 1018.3R
ATWATER BUOY     0000   56     340/ 10/ 12 1019.3R
MILWAUKEE LAKESH 0000   56     350/  6/  7   N/A
S MID LAKE BUOY  2350   56 62  350/ 21/ 25 1017.1R   9/ 8
KENOSHA   LAKESH 0000   56     360/ 13/ 16 1017.9R
$$

TC  - TEMPERATURE IN CELSIUS
VSB - VISIBILITY IN STATUTE MILES
WCI - WIND CHILL INDEX
HX  - HEAT INDEX



USA.gov is the U.S. government's official web portal to all federal, state and local government web resources and services.